DW2745 Weather Reports


time (UTC)temp
C
wind
direction
speed
KPH
gust
KPH
rain 1hr
cm
rain 24hr
cm
rain mn
cm
humidity
%
barometer
mb
20260507051010 6 272 19.3 24.1 0.00 1.52 0.00 74 1012.0
20260507050508 6 283 19.3 25.7 0.00 1.52 0.00 74 1012.1
20260507050020 6 275 20.9 25.7 0.00 1.52 0.00 74 1012.1
20260507045508 6 274 19.3 27.4 0.00 1.68 0.00 75 1012.0
20260507045007 6 259 22.5 27.4 0.00 1.68 0.00 74 1012.0
20260507044507 6 290 22.5 27.4 0.00 1.68 0.00 75 1012.0
20260507044008 6 283 22.5 25.7 0.00 1.68 0.00 75 1011.9
20260507043504 6 284 20.9 27.4 0.00 1.68 0.00 77 1011.8
20260507043004 6 290 20.9 27.4 0.00 1.68 0.00 76 1011.9
20260507042503 7 284 20.9 29.0 0.00 1.68 0.00 75 1012.0
20260507042001 7 275 22.5 29.0 0.00 1.68 0.00 76 1011.9
20260507041600 7 286 20.9 27.4 0.00 1.68 0.00 77 1011.8
20260507041059 7 290 22.5 29.0 0.00 1.68 0.00 81 1011.7
20260507040558 7 284 22.5 29.0 0.00 1.68 0.00 86 1011.7
20260507035556 6 265 14.5 22.5 0.00 1.73 1.68 88 1011.7
20260507035055 6 275 11.3 17.7 0.00 1.73 1.68 89 1011.7
20260507034602 6 246 12.9 19.3 0.00 1.73 1.68 89 1011.7
20260507034055 6 247 9.7 16.1 0.00 1.73 1.68 90 1011.8
20260507033554 6 254 9.7 16.1 0.00 1.73 1.68 90 1011.4
20260507033107 6 252 8.0 16.1 0.00 1.73 1.68 90 1011.4
20260507032554 6 238 9.7 17.7 0.00 1.73 1.68 91 1011.4
20260507032053 6 246 9.7 17.7 0.00 1.73 1.68 91 1011.4
20260507031601 6 235 9.7 16.1 0.00 1.73 1.68 92 1011.5
20260507031055 6 235 11.3 17.7 0.00 1.73 1.68 92 1011.4
20260507030553 6 260 11.3 17.7 0.00 1.73 1.68 93 1011.2
20260507030108 6 257 9.7 16.1 0.00 1.73 1.68 93 1011.4
20260507025553 6 218 9.7 14.5 0.00 1.78 1.68 93 1011.4
20260507025053 6 247 8.0 16.1 0.00 1.78 1.68 94 1011.4
20260507024608 5 236 9.7 16.1 0.00 1.78 1.68 94 1011.4
20260507024052 5 229 8.0 12.9 0.00 1.78 1.68 95 1011.4
20260507023552 5 248 4.8 12.9 0.00 1.78 1.68 95 1011.4
20260507023053 5 221 6.4 12.9 0.00 1.78 1.68 95 1011.4
20260507022552 5 247 6.4 12.9 0.00 1.78 1.68 95 1011.4
20260507022052 5 227 4.8 12.9 0.00 1.78 1.68 95 1011.6
20260507021556 5 247 6.4 12.9 0.00 1.78 1.68 94 1011.6
20260507021053 5 217 4.8 11.3 0.00 1.78 1.68 94 1011.5
20260507020551 5 246 4.8 9.7 0.03 1.78 1.68 94 1011.5
20260507020058 5 235 3.2 11.3 0.03 1.78 1.68 94 1011.6
20260507015551 5 217 4.8 11.3 0.03 1.85 1.68 94 1011.4
20260507015053 5 234 4.8 8.0 0.03 1.85 1.68 94 1011.3
20260507014557 5 213 3.2 9.7 0.03 1.85 1.68 93 1011.3
20260507014050 5 236 4.8 12.9 0.03 1.85 1.68 93 1011.3
20260507013551 5 240 6.4 17.7 0.03 1.85 1.68 93 1011.5
20260507013058 6 238 11.3 19.3 0.03 1.85 1.68 94 1011.6
20260507012550 6 270 14.5 20.9 0.03 1.85 1.68 94 1011.6
20260507012049 5 285 16.1 20.9 0.03 1.85 1.68 94 1011.5
20260507011552 5 273 17.7 22.5 0.03 1.85 1.68 94 1011.4
20260507011048 5 280 17.7 22.5 0.03 1.85 1.68 94 1011.3
20260507010548 5 277 19.3 24.1 0.00 1.83 1.65 93 1011.3
20260507010048 5 300 19.3 24.1 0.00 1.83 1.65 93 1011.3
20260507005547 5 296 17.7 20.9 0.00 1.93 1.65 93 1011.2
20260507005045 5 293 17.7 22.5 0.00 1.93 1.65 93 1011.1
20260507004543 5 299 16.1 20.9 0.00 1.93 1.65 92 1011.0
20260507004043 5 304 17.7 20.9 0.00 1.93 1.65 92 1010.9
20260507003546 5 304 16.1 20.9 0.00 1.93 1.65 90 1010.9
20260507003042 6 306 16.1 20.9 0.00 1.93 1.65 89 1010.8
20260507002542 6 320 4.8 8.0 0.00 1.93 1.65 89 1010.7
20260507002044 6 327 6.4 9.7 0.00 1.93 1.65 88 1010.7
20260507001540 6 325 8.0 9.7 0.00 1.93 1.65 87 1010.5
20260507001040 6 5 4.8 6.4 0.00 1.93 1.65 87 1010.5
20260507000539 6 45 0.0 1.6 0.00 1.93 1.65 88 1010.4
20260507000039 6 45 0.0 1.6 0.00 1.93 1.65 88 1010.3
20260506235540 6 45 0.0 3.2 0.00 2.03 1.65 88 1010.3
20260506235038 6 45 0.0 6.4 0.00 2.03 1.65 88 1010.3
20260506234550 6 45 1.6 6.4 0.00 2.03 1.65 88 1010.2
20260506234036 6 45 3.2 8.0 0.00 2.03 1.65 88 1010.1
20260506233536 6 45 4.8 8.0 0.00 2.03 1.65 88 1010.1
20260506233044 6 49 4.8 9.7 0.00 2.03 1.65 88 1010.0
20260506232535 7 50 6.4 12.9 0.00 2.03 1.65 88 1010.0
20260506232035 7 32 8.0 12.9 0.00 2.03 1.65 88 1009.9
20260506231535 7 27 6.4 9.7 0.00 2.03 1.65 87 1009.9
20260506231036 7 28 6.4 8.0 0.00 2.03 1.65 88 1009.9
20260506230534 7 24 4.8 8.0 0.00 2.03 1.65 88 1009.8
20260506230033 7 355 1.6 4.8 0.00 2.03 1.65 88 1009.6
20260506225534 7 355 0.0 0.0 0.00 2.08 1.65 88 1009.5
20260506225034 7 355 0.0 0.0 0.00 2.08 1.65 88 1009.4
20260506224534 7 355 0.0 0.0 0.00 2.08 1.65 88 1009.3
20260506224033 7 355 0.0 0.0 0.00 2.08 1.65 87 1009.3
20260506223535 7 355 0.0 0.0 0.00 2.08 1.65 87 1009.4
20260506223032 7 355 0.0 3.2 0.00 2.08 1.65 86 1009.4
20260506222532 7 355 0.0 3.2 0.00 2.08 1.65 86 1009.2
20260506222033 7 355 0.0 3.2 0.00 2.08 1.65 85 1009.3
20260506221532 7 355 0.0 3.2 0.00 2.08 1.65 85 1009.4
20260506221034 7 355 0.0 3.2 0.00 2.08 1.65 85 1009.3
20260506220533 7 355 1.6 4.8 0.00 2.08 1.65 85 1009.4
20260506220135 7 355 1.6 4.8 0.00 2.08 1.65 85 1009.2
20260506215531 7 355 1.6 3.2 0.00 2.08 1.65 85 1009.4
20260506215031 7 355 1.6 4.8 0.00 2.08 1.65 85 1009.5
20260506214531 6 355 3.2 4.8 0.00 2.08 1.65 83 1009.5
20260506214034 6 355 1.6 4.8 0.00 2.08 1.65 84 1009.5
20260506213533 6 355 3.2 4.8 0.00 2.08 1.65 84 1009.6
20260506213032 6 355 1.6 4.8 0.00 2.08 1.65 84 1009.6
20260506212530 6 355 1.6 4.8 0.00 2.08 1.65 84 1009.5
20260506212030 6 355 1.6 4.8 0.00 2.08 1.65 84 1009.5
20260506211530 6 355 1.6 6.4 0.00 2.08 1.65 84 1009.5
20260506211030 6 355 3.2 6.4 0.00 2.08 1.65 84 1009.4
20260506210530 6 49 1.6 4.8 0.00 2.08 1.65 84 1009.6
20260506210034 6 49 3.2 8.0 0.00 2.08 1.65 85 1009.4
20260506205533 6 49 4.8 8.0 0.00 2.08 1.65 86 1009.2
20260506205027 6 36 1.6 6.4 0.00 2.08 1.65 86 1009.3
20260506204527 6 331 0.0 0.0 0.00 2.08 1.65 86 1009.3
20260506204028 6 331 0.0 0.0 0.00 2.08 1.65 86 1009.2
20260506203529 6 331 0.0 0.0 0.00 2.08 1.65 86 1009.4
20260506203035 6 331 0.0 0.0 0.00 2.08 1.65 87 1009.3
20260506202526 6 331 0.0 0.0 0.00 2.08 1.65 87 1009.2
20260506202026 6 331 0.0 0.0 0.00 2.08 1.65 87 1009.5
20260506201528 6 331 0.0 1.6 0.00 2.08 1.65 87 1009.6
20260506201026 6 331 0.0 1.6 0.00 2.08 1.65 88 1009.6
20260506200525 6 331 0.0 0.0 0.00 2.08 1.65 88 1009.5
20260506200025 6 331 0.0 0.0 0.00 2.08 1.65 89 1009.4
20260506195527 6 331 0.0 1.6 0.00 2.08 1.65 89 1009.4
20260506195024 6 331 0.0 3.2 0.00 2.08 1.65 89 1009.3
20260506194524 6 331 0.0 4.8 0.00 2.08 1.65 90 1009.3
20260506194024 6 331 1.6 4.8 0.00 2.08 1.65 90 1009.3
20260506193524 6 331 0.0 3.2 0.00 2.08 1.65 90 1009.3
20260506193023 6 331 1.6 3.2 0.00 2.08 1.65 91 1009.3
20260506192523 6 331 0.0 4.8 0.00 2.08 1.65 91 1009.2
20260506192026 5 331 3.2 6.4 0.00 2.08 1.65 91 1009.3
20260506191523 5 331 3.2 6.4 0.00 2.08 1.65 92 1009.4
20260506191022 5 331 3.2 6.4 0.00 2.08 1.65 92 1009.4
20260506190521 5 331 1.6 6.4 0.00 2.08 1.65 92 1009.4
20260506190022 5 331 3.2 6.4 0.00 2.08 1.65 93 1009.3
20260506185521 5 325 3.2 6.4 0.00 2.08 1.65 93 1009.4
20260506185021 5 313 3.2 6.4 0.00 2.08 1.65 94 1009.4
20260506184521 5 318 3.2 6.4 0.00 2.08 1.65 94 1009.3
20260506184025 5 318 3.2 6.4 0.00 2.08 1.65 94 1009.3
20260506183521 5 329 3.2 8.0 0.00 2.08 1.65 94 1009.3
20260506183021 5 333 4.8 8.0 0.00 2.08 1.65 94 1009.3
20260506182519 5 326 4.8 9.7 0.00 2.08 1.65 95 1009.4
20260506182019 5 324 6.4 9.7 0.00 2.08 1.65 95 1009.6
20260506181519 5 320 6.4 9.7 0.00 2.08 1.65 95 1009.6
20260506181019 5 318 6.4 12.9 0.00 2.08 1.65 95 1009.7
20260506180519 5 323 8.0 12.9 0.00 2.08 1.65 95 1009.7
20260506180025 5 333 8.0 12.9 0.00 2.08 1.65 96 1009.6
20260506175517 5 343 8.0 14.5 0.00 2.08 1.65 96 1009.6
20260506175017 5 329 9.7 14.5 0.00 2.08 1.65 95 1009.4
20260506174519 5 338 8.0 12.9 0.00 2.08 1.65 96 1009.3
20260506174015 5 336 8.0 12.9 0.00 2.08 1.65 96 1009.2
20260506173515 5 338 8.0 12.9 0.00 2.08 1.65 96 1009.1
20260506173018 5 348 8.0 12.9 0.00 2.08 1.65 96 1009.1
20260506172513 5 360 8.0 9.7 0.00 2.08 1.65 96 1008.9
20260506172013 5 5 6.4 9.7 0.00 2.08 1.65 96 1008.8
20260506171515 5 17 4.8 8.0 0.00 2.08 1.65 96 1008.7
20260506171013 5 19 4.8 8.0 0.00 2.08 1.65 96 1008.8
20260506170513 5 10 4.8 9.7 0.00 2.08 1.65 96 1008.8
20260506170013 5 19 6.4 9.7 0.00 2.08 1.65 96 1008.8
20260506165514 5 20 6.4 12.9 0.00 2.08 1.65 97 1008.7
20260506165014 5 5 6.4 14.5 0.00 2.08 1.65 97 1008.7
20260506164512 5 12 9.7 14.5 0.00 2.08 1.65 97 1008.8
20260506164014 5 355 9.7 12.9 0.00 2.08 1.65 97 1008.7
20260506163510 5 13 8.0 14.5 0.00 2.08 1.65 97 1008.7
20260506163016 5 15 8.0 14.5 0.00 2.08 1.65 97 1008.8
20260506162508 5 12 9.7 12.9 0.00 2.08 1.65 97 1008.7
20260506162009 5 26 8.0 12.9 0.00 2.08 1.65 97 1008.6
20260506161507 5 20 8.0 12.9 0.00 2.08 1.65 97 1008.7
20260506161010 5 17 8.0 9.7 0.03 2.08 1.65 97 1008.7
20260506160508 5 360 6.4 9.7 0.03 2.08 1.65 96 1008.8
20260506160005 5 19 8.0 11.3 0.03 2.08 1.65 97 1008.7
20260506155504 5 28 6.4 9.7 0.03 2.08 1.65 97 1008.7
20260506155004 5 21 8.0 14.5 0.03 2.08 1.65 97 1008.8
20260506154504 5 22 8.0 16.1 0.03 2.08 1.65 97 1008.7
20260506154003 5 28 9.7 16.1 0.03 2.08 1.65 97 1008.6
20260506153502 5 36 11.3 16.1 0.03 2.08 1.65 97 1008.7
20260506153001 5 26 9.7 16.1 0.03 2.08 1.65 97 1008.7
20260506152500 5 32 11.3 16.1 0.03 2.08 1.65 97 1008.6
20260506152059 5 27 9.7 16.1 0.03 2.08 1.65 97 1008.6
20260506151600 5 32 9.7 14.5 0.03 2.08 1.65 97 1008.6
20260506151057 5 30 9.7 14.5 0.00 2.06 1.63 97 1008.6
20260506150557 5 19 8.0 14.5 0.00 2.06 1.63 97 1008.7
20260506150057 5 26 11.3 16.1 0.00 2.06 1.63 97 1008.6
20260506145601 5 28 9.7 16.1 0.03 2.06 1.63 97 1008.6
20260506145056 5 24 9.7 16.1 0.03 2.06 1.63 97 1008.6
20260506144555 5 46 9.7 16.1 0.03 2.06 1.63 97 1008.3
20260506144056 5 51 11.3 17.7 0.03 2.06 1.63 97 1008.4
20260506143554 5 28 11.3 17.7 0.03 2.06 1.63 97 1008.4
20260506143054 5 30 11.3 17.7 0.03 2.06 1.63 97 1008.3
20260506142553 5 48 11.3 17.7 0.03 2.06 1.63 97 1008.1
20260506142054 5 46 12.9 17.7 0.05 2.06 1.63 96 1008.1
20260506141551 5 51 11.3 14.5 0.05 2.06 1.63 97 1008.2
20260506141050 5 47 8.0 16.1 0.05 2.06 1.63 97 1008.2
20260506140550 5 56 9.7 16.1 0.05 2.06 1.63 96 1008.3
20260506140049 5 51 9.7 16.1 0.05 2.06 1.63 97 1008.3
20260506135548 5 60 6.4 16.1 0.03 2.03 1.60 96 1008.2
20260506135046 5 45 8.0 14.5 0.05 2.03 1.60 96 1008.3
20260506134546 6 48 8.0 14.5 0.05 2.03 1.60 96 1008.3
20260506134045 6 49 4.8 9.7 0.05 2.03 1.60 96 1008.2
20260506133545 6 63 4.8 8.0 0.05 2.03 1.60 97 1008.2
20260506133044 6 58 3.2 6.4 0.05 2.03 1.60 97 1008.1
20260506132543 6 58 3.2 6.4 0.05 2.03 1.60 97 1007.9
20260506132042 6 67 3.2 6.4 0.03 2.01 1.57 97 1007.9
20260506131549 6 77 1.6 6.4 0.03 2.01 1.57 97 1007.8
20260506131042 6 79 1.6 6.4 0.05 2.01 1.57 97 1007.9
20260506130541 6 81 1.6 6.4 0.05 2.01 1.57 96 1007.9
20260506130057 6 86 1.6 4.8 0.08 2.01 1.57 97 1007.9
20260506125539 6 71 0.0 4.8 0.08 2.01 1.57 97 1008.0
20260506125039 6 90 0.0 4.8 0.05 1.98 1.55 97 1007.9
20260506124541 6 90 1.6 6.4 0.05 1.98 1.55 97 1007.9
20260506124038 6 96 1.6 6.4 0.05 1.98 1.55 97 1007.9
20260506123538 6 92 3.2 6.4 0.05 1.98 1.55 97 1007.8
20260506123041 6 93 1.6 6.4 0.08 1.98 1.55 97 1007.9
20260506122542 6 69 3.2 6.4 0.08 1.98 1.55 97 1007.8
20260506122038 6 79 1.6 4.8 0.08 1.98 1.55 97 1008.0
20260506121539 6 79 1.6 6.4 0.08 1.98 1.55 97 1007.9
20260506121037 5 73 3.2 6.4 0.08 1.96 1.52 97 1007.9
20260506120536 5 98 1.6 6.4 0.08 1.96 1.52 97 1008.1
20260506120036 5 98 1.6 6.4 0.05 1.93 1.50 97 1008.1
20260506115536 5 97 1.6 6.4 0.08 1.93 1.50 97 1008.1
20260506115035 5 78 1.6 8.0 0.08 1.93 1.50 97 1007.9
20260506114538 5 87 1.6 6.4 0.10 1.93 1.50 97 1007.9
20260506114035 5 71 1.6 9.7 0.13 1.93 1.50 97 1007.7
20260506113535 5 87 3.2 9.7 0.13 1.91 1.45 97 1007.6
20260506113041 5 88 1.6 6.4 0.13 1.91 1.45 97 1007.7
20260506112535 6 87 1.6 6.4 0.15 1.91 1.45 97 1007.5
20260506112037 6 76 1.6 6.4 0.18 1.91 1.45 97 1007.5
20260506111533 6 104 1.6 6.4 0.18 1.91 1.45 97 1007.6
20260506111033 6 88 1.6 9.7 0.18 1.88 1.42 97 1007.6
20260506110532 6 61 4.8 9.7 0.20 1.88 1.42 97 1007.6
20260506110034 6 80 1.6 4.8 0.23 1.88 1.42 97 1007.5
20260506105531 6 80 1.6 4.8 0.23 1.85 1.42 97 1007.8
20260506105031 6 80 1.6 4.8 0.25 1.85 1.42 97 1007.7
20260506104531 6 86 1.6 4.8 0.23 1.83 1.40 97 1007.8
20260506104029 6 86 1.6 4.8 0.20 1.80 1.37 97 1007.9
20260506103529 6 86 1.6 4.8 0.20 1.78 1.35 97 1008.0
20260506103036 6 86 1.6 4.8 0.20 1.78 1.35 97 1008.2
20260506102529 6 86 1.6 6.4 0.18 1.75 1.32 97 1007.9
20260506102029 6 86 1.6 6.4 0.15 1.73 1.30 97 1007.9
20260506101542 6 86 1.6 4.8 0.18 1.73 1.30 97 1008.0
20260506101027 6 40 1.6 6.4 0.15 1.70 1.27 97 1008.2
20260506100526 6 40 1.6 6.4 0.13 1.68 1.24 97 1008.1
20260506100026 6 57 1.6 4.8 0.10 1.65 1.22 97 1007.9
20260506095526 6 107 1.6 4.8 0.08 1.63 1.19 97 1008.2
20260506095028 6 107 1.6 4.8 0.08 1.60 1.17 96 1008.1
20260506094526 6 78 1.6 4.8 0.08 1.60 1.17 97 1008.0
20260506094027 6 67 1.6 4.8 0.08 1.60 1.17 97 1007.9
20260506093526 6 63 1.6 6.4 0.08 1.57 1.14 97 1007.7
20260506093035 6 83 1.6 6.4 0.08 1.57 1.14 97 1007.7
20260506092525 6 73 3.2 6.4 0.10 1.57 1.14 97 1007.5
20260506092027 6 46 3.2 6.4 0.08 1.55 1.12 97 1007.3
20260506091526 6 83 3.2 6.4 0.10 1.55 1.12 97 1007.2
20260506091028 6 68 1.6 6.4 0.10 1.55 1.12 97 1007.4
20260506090522 6 103 1.6 4.8 0.13 1.55 1.12 97 1007.6
20260506090022 6 103 1.6 4.8 0.13 1.55 1.12 97 1007.9
20260506085526 6 103 0.0 4.8 0.15 1.55 1.12 97 1007.9
20260506085021 6 103 0.0 4.8 0.13 1.52 1.09 97 1008.1
20260506084521 6 96 1.6 4.8 0.15 1.52 1.09 97 1007.9
20260506084021 6 355 1.6 4.8 0.18 1.52 1.09 97 1007.8
20260506083521 6 91 1.6 4.8 0.18 1.50 1.07 97 1007.9
20260506083021 6 91 1.6 4.8 0.20 1.50 1.07 97 1008.1
20260506082523 6 91 0.0 4.8 0.20 1.45 1.04 97 1008.1
20260506082020 6 91 1.6 4.8 0.23 1.45 1.04 97 1008.2
20260506081530 6 91 1.6 3.2 0.20 1.42 1.02 97 1008.2
20260506081022 6 91 0.0 4.8 0.23 1.42 1.02 97 1008.0
20260506080520 6 91 0.0 4.8 0.23 1.42 0.99 97 1008.0
20260506080120 6 91 1.6 4.8 0.25 1.42 0.99 97 1008.0
20260506073518 6 90 3.2 8.0 0.23 1.30 0.86 96 1007.9
20260506073033 6 91 1.6 8.0 0.25 1.27 0.84 96 1008.0
20260506072516 6 90 3.2 8.0 0.28 1.27 0.84 96 1007.8
20260506072017 6 65 3.2 6.4 0.30 1.24 0.81 97 1007.7
20260506071515 6 101 1.6 6.4 0.33 1.22 0.79 97 1007.7
20260506071115 6 69 1.6 6.4 0.36 1.22 0.79 97 1007.8
20260506070514 6 69 1.6 6.4 0.36 1.19 0.76 97 1007.8
20260506062508 6 61 6.4 9.7 0.28 0.99 0.56 96 1009.0
20260506062007 6 74 1.6 14.5 0.25 0.94 0.51 96 1008.6
20260506061506 7 61 8.0 14.5 0.23 0.89 0.46 96 1008.5
20260506061005 7 58 4.8 9.7 0.23 0.86 0.43 96 1008.6
20260506060505 7 74 1.6 9.7 0.20 0.84 0.41 96 1008.4